EW2349 Weather Reports


time (UTC)temp
C
wind
direction
speed
KPH
gust
KPH
rain 1hr
cm
rain 24hr
cm
rain mn
cm
humidity
%
barometer
mb
20260504081509 7 360 12.9 25.7 0.00 0.00 0.00 52 1006.2
20260504044531 12 360 19.3 32.2 0.00 0.00 0.00 39 1003.7
20260504043031 13 360 9.7 16.1 0.00 0.00 0.00 38 1003.4
20260504041540 13 360 14.5 22.5 0.00 0.00 0.00 37 1002.9
20260504040029 13 360 16.1 25.7 0.00 0.00 0.00 36 1002.7
20260504034529 14 346 16.1 32.2 0.00 0.00 0.00 37 1002.7
20260504033028 14 15 27.4 40.2 0.00 0.00 0.00 36 1002.4
20260504031527 15 360 24.1 38.6 0.00 0.00 0.00 36 1002.2
20260504030027 15 360 11.3 24.1 0.00 0.00 0.00 37 1001.9
20260504024526 16 347 16.1 33.8 0.00 0.00 0.00 35 1001.5
20260504023025 16 360 20.9 38.6 0.00 0.00 0.00 35 1001.1
20260504021523 17 360 33.8 46.7 0.00 0.00 0.00 34 1000.7
20260504020035 18 14 30.6 56.3 0.00 0.00 0.00 33 1000.3
20260504014523 20 360 25.7 40.2 0.00 0.00 0.00 29 999.5
20260504013031 20 360 20.9 40.2 0.00 0.00 0.00 29 999.4
20260504011522 21 360 27.4 40.2 0.00 0.00 0.00 29 999.4
20260504010020 21 360 25.7 45.1 0.00 0.00 0.00 29 999.3
20260504004519 21 360 22.5 41.8 0.00 0.00 0.00 29 999.5
20260504003018 22 360 30.6 46.7 0.00 0.00 0.00 29 999.6
20260504001524 22 360 29.0 49.9 0.00 0.00 0.00 29 999.7
20260504000016 22 360 25.7 45.1 0.00 0.00 0.00 28 999.6
20260503234516 23 360 29.0 53.1 0.00 0.00 0.00 26 999.6
20260503233019 23 360 35.4 49.9 0.00 0.00 0.00 20 999.6
20260503231514 23 360 25.7 45.1 0.00 0.00 0.00 21 999.7
20260503230031 24 360 24.1 48.3 0.00 0.00 0.00 20 999.6
20260503224620 24 360 30.6 53.1 0.00 0.00 0.00 23 999.7
20260503223011 25 360 33.8 49.9 0.00 0.00 0.00 21 999.9
20260503221508 25 360 30.6 51.5 0.00 0.00 0.00 19 1000.2
20260503220006 25 230 29.0 46.7 0.00 0.00 0.00 20 1000.5
20260503214508 25 360 29.0 43.5 0.00 0.00 0.00 21 1000.5
20260503213103 24 231 27.4 49.9 0.00 0.00 0.00 27 1001.2
20260503211559 23 360 22.5 43.5 0.00 0.00 0.00 28 1001.7
20260503210053 23 227 27.4 0.0 0.00 0.00 0.00 27 1002.3
20260503204611 23 360 22.5 32.2 0.00 0.00 0.00 25 1002.8
20260503203047 23 360 19.3 40.2 0.00 0.00 0.00 23 1003.3
20260503201545 23 360 25.7 37.0 0.00 0.00 0.00 22 1003.4
20260503200041 22 360 24.1 32.2 0.00 0.00 0.00 26 1003.7
20260503194542 21 360 22.5 35.4 0.00 0.00 0.00 26 1004.0
20260503193044 21 360 25.7 35.4 0.00 0.00 0.00 26 1004.5
20260503191600 22 232 17.7 41.8 0.00 0.00 0.00 28 1004.8
20260503190034 22 227 24.1 35.4 0.00 0.00 0.00 28 1005.1
20260503184527 22 360 19.3 38.6 0.00 0.00 0.00 29 1005.6
20260503183024 21 360 24.1 38.6 0.00 0.00 0.00 29 1006.1
20260503181521 21 360 20.9 40.2 0.00 0.00 0.00 31 1006.3
20260503180024 21 360 22.5 32.2 0.00 0.00 0.00 29 1006.7
20260503174515 21 360 17.7 35.4 0.00 0.00 0.00 30 1007.0
20260503173011 21 360 22.5 38.6 0.00 0.00 0.00 30 1007.4
20260503171508 20 360 22.5 38.6 0.00 0.00 0.00 30 1007.7